Tracking 18980 objects as of 19-Feb-2018
HD Live streaming from Space Station
objects crossing your sky now

FENGYUN 1C DEB

Track FENGYUN 1C DEB now!
10-day predictions


NORAD ID: 30366
Int'l Code: 1999-025ACD
Perigee: 758.5 km
Apogee: 857.5 km
Inclination: 99.0 °
Period: 100.9 minutes
Semi major axis: 7179 km
RCS: 0.034 m2 (small)
Launch date: May 10, 1999
Source: People's Republic of China (PRC)
Launch site: Taiyaun Space Center, China (TSC)

Note: This is SATELLITE DEBRIS
aabbcc
Your satellite tracking list
Your tracking list is empty




NASA's NSSDC Master Catalog

Two Line Element Set (TLE):
1 30366U 99025ACD 18049.39022677 +.00000186 +00000-0 +93124-4 0  9999
2 30366 099.0044 194.3348 0068943 206.7015 171.4764 14.27264741575600
Source of the keplerian elements: AFSPC